sat.trackr.live / text

‹ back to catalog

JILIN GAOFEN OBJECT H

NORAD 68698 · 2026-080H

PAYLOAD ACTIVE UNKNOWN

§ Identity

Operator
Country
PRC
Launch date
2026-04-14
Launch site
JSC
Launch vehicle
Mass (kg)
RCS (m²)

External: N2YO · Heavens-Above · Gunter

§ Orbital elements

Epoch: 2026-09-20T04:43:24.194784Z

Period
95.47 min
Inclination
97.6573°
Eccentricity
0.0016332
Mean motion
15.08284540 rev/d
Perigee alt
530.1 km
Apogee alt
552.7 km
Semi-major
6,919.6 km
B*
1.7619e-4
RAAN
338.6880°
Arg perigee
101.3245°
Mean anomaly
258.9819°
Rev number
2,395

§ Raw data

JILIN GAOFEN OBJECT H1 68698U 26080H   26263.19680781  .00002675  00000+0  17619-3 0  99982 68698  97.6573 338.6880 0016332 101.3245 258.9819 15.08284540 23951

JSON: /api/v1/satellites/68698 · /tle

For live sub-satellite position, see the globe view (requires WebGL).

§ Visibility from observer

Set your observer location to see the next 7 days of passes ≥ 10°. The values pass through the URL so the page stays shareable.

No JS? Fill the form by hand. The geolocation button needs JavaScript.